Résultats de la compétition "Nationale Longue Distance NE Dijon 28/03/2010" du 28-03-2010 organisée par le club 2109
     
  Télécharger le fichier CSV.  
     
     

 Circuit "D"

Licence Nom Prénom Temps CN
précédent
Score sur
la course
Différence
147COUPATLaure1:02:2554035034-369
3991MOLINIERLea1:07:0348224686-136
17002BOVEROSeverine1:07:3543464649+303
896HADJIANGELISSophie1:08:0438134616+803
801BARRIERMarianne1:09:52N/A4497N/A
3301BOISSONNETYolande1:10:1936404468+828
745TINCHANTEstelle1:11:0342244422+198
2470MOUCHETTESabrina1:12:4739284317+389
2892MOULIERECamille1:13:3846464267-379
5639HUEBERDiane1:13:4845064257-249
2355MANGUEROLaure1:14:20N/A4227N/A
6522IMBERTAdeline1:14:4849134200-713
7301DUPOIRIEUXCloe1:18:0243314026-305
4373BONNEAUMathilde1:18:2739324005+73
7852TASSINElodie1:19:2738473955+108
2377MAKOVICKAVanessa1:19:5532433931+688
11476DEBOCQMAINEAgnes1:20:2942663904-362
826LAVIALLEFlorence1:20:4939303888-42
7071COULONFanny1:22:2133853815+430
19652MISZOVITSAndrea1:23:2534043767+363
2665ENARDSandrine1:23:3503759N/A
18059BRUNDU-LEMAIRESarah1:25:0036933696+3
19241VADURELPauline1:25:5437753658-117
9426LERICHECamille1:29:1539803520-460
13911JANKECHKarine1:29:4439843501-483
22600CAVALIERHéloïse1:30:1425903482+892
19065BENOITAnne1:32:3237993395-404
720CLOEZVeronique1:32:5240063383-623
10903RAVENELManon1:33:0135673378-189
12078CASTERANMarie1:35:2235123295-217
20629KIRILOVAurélie1:37:5130023211+209
17029BONNINMathilde1:37:5734423208-234
13688FRANCOISAline1:38:2334213194-227
23079MERCIERAgnès1:39:10N/A3168N/A
15310BROUSSEIsabelle1:39:3539173155-762
7048HAGARDVirginie1:42:3621803062+882
1088ROBERTStephanie1:43:06N/A3047N/A
17764CHOUKROUNGyongyike1:46:0529882962-26
17899DEPERSINIsabelle1:49:5629352858-77
12953EMPTAZNathalie1:52:3727102790+80
5464DENAIXMaylis1:53:4040362764-1272
8116GARROTSophie1:55:3233132719-594
18931MAUVILLYKarine2:03:4728262538-288
19740MEMBREYAurore2:05:4118722500+628
13142LOEWAngelique2:09:0028522436-416
20882FERLETBénédicte2:12:2731312372-759
16249DETOCManon2:14:1129412341-600
21414HUETMarion2:15:3902316N/A
739RUAUDAgnes3:11:5921581637-521
10843BLINGwennaelleN/A25280-2528

  Indice de confiance du circuit (moyenne des différences entre CN et score sur la course des 3 à 10 premiers) : 142






 Retour